Wind_Speed
4 3 3 2 2 2 3 3 4 4 5 5 5 6 6 7 7 6 7 8 9 9 10 10 10 10 11 12 13 13 14 14 14 14 14 14 14 14 14 14 15 15 15
4 4 2 2 2 2 3 3 4 4 4 4 5 5 6 6 6 6 7 8 8 9 9 9 10 11 12 13 13 13 14 14 15 15 15 15 15 15 15 14 15 15 16
3 3 2 2 2 2 3 3 3 3 3 4 4 4 5 5 6 6 7 7 8 8 9 9 10 10 11 12 12 13 14 14 15 15 15 16 15 16 15 15 15 15 15
2 2 2 2 2 2 3 3 3 2 2 3 3 3 4 5 6 6 6 7 7 8 8 9 9 9 10 10 11 12 13 14 14 14 14 15 15 15 15 16 15 15 15
2 2 2 2 2 2 2 2 2 2 2 2 2 2 3 4 4 5 6 6 6 7 7 7 8 8 8 9 10 11 11 12 12 12 13 13 15 15 16 16 15 15 15
2 2 2 2 2 3 2 2 2 2 2 1 2 2 2 3 3 4 4 5 6 6 6 6 7 7 8 9 10 10 11 11 11 12 12 13 14 15 15 15 15 15 15
2 2 2 2 2 2 2 2 2 2 2 2 2 2 2 2 3 3 3 4 5 6 6 5 6 7 7 8 9 9 10 10 10 11 12 13 14 15 15 15 15 15 15
2 2 2 2 1 2 2 2 2 2 2 2 2 2 2 2 3 3 4 4 4 5 5 5 6 6 7 7 8 9 9 10 11 11 12 12 13 15 15 15 15 16 16
3 2 2 2 2 2 2 2 3 3 2 2 2 2 2 3 3 4 4 5 5 5 5 6 6 7 8 8 8 9 10 11 11 11 12 12 12 14 14 15 16 16 17
3 2 2 2 2 3 3 3 3 4 3 3 3 3 3 3 3 3 4 5 5 5 6 6 7 8 8 8 8 9 10 11 12 11 12 13 13 14 14 15 16 17 18
3 3 3 3 3 4 4 4 4 4 4 4 4 4 4 4 4 4 4 5 5 6 6 7 7 8 9 9 9 10 11 12 13 13 12 13 14 14 14 15 16 17 18
3 4 4 4 4 5 4 4 4 5 4 4 4 4 5 5 5 5 5 6 6 7 7 8 9 9 10 10 11 11 12 13 14 14 13 13 14 14 15 16 16 17 18
3 3 4 4 5 5 4 4 5 5 5 5 5 6 6 6 6 6 7 7 7 8 9 10 10 11 11 12 12 13 14 14 15 14 14 14 15 16 16 16 17 18 19
3 3 3 4 4 4 4 4 5 5 5 6 6 6 7 7 7 7 8 8 9 9 10 10 11 12 12 13 13 14 15 15 16 17 17 17 17 18 18 18 19 20 20
3 3 3 3 4 4 4 5 6 5 5 6 6 7 7 7 7 7 8 9 9 9 10 11 11 12 12 13 14 15 15 16 17 18 18 19 19 19 20 20 21 22 23
4 4 4 4 4 5 5 6 6 6 6 6 7 7 7 8 9 8 9 9 10 10 11 12 13 13 14 14 15 16 17 17 18 19 19 20 21 22 22 22 23 24 25
4 5 5 5 5 6 7 7 7 7 7 8 8 8 9 9 10 9 10 11 12 13 13 14 14 15 16 17 17 18 18 18 20 20 21 21 22 22 23 24 25 26 26
5 6 6 6 6 6 7 8 8 8 8 9 9 10 10 10 11 11 12 13 13 14 15 16 16 17 17 18 19 19 20 20 21 22 23 24 24 25 25 26 26 26 27
6 6 7 7 8 8 8 8 9 9 9 10 10 11 11 12 13 14 15 15 15 16 17 17 18 18 18 19 20 20 21 22 23 23 24 24 25 26 27 27 27 28 29
7 8 8 8 9 10 10 10 10 10 10 11 12 12 13 14 15 15 16 16 17 17 18 18 18 19 20 20 21 21 22 23 24 24 25 26 27 27 28 28 29 30 31
10 10 10 10 11 11 12 12 12 12 13 13 13 14 14 15 16 16 17 17 18 18 19 20 20 20 21 21 22 23 24 25 25 26 26 27 28 28 29 30 31 32 33
11 12 12 12 12 12 13 13 13 14 14 14 15 15 15 16 17 17 18 19 19 20 20 21 21 22 22 23 24 25 25 26 27 28 28 28 29 29 31 32 33 33 34
11 12 13 13 14 14 14 14 15 15 15 15 16 16 16 17 17 18 19 20 20 21 21 22 23 23 24 25 26 26 27 27 27 28 28 29 30 32 32 33 34 34 35
13 13 13 13 14 15 15 16 16 17 17 17 17 17 17 18 19 20 21 21 22 23 24 25 25 25 26 26 27 28 28 29 29 29 30 30 31 33 34 35 35 36 37
15 15 14 14 15 16 17 18 18 18 18 19 19 19 20 21 21 21 22 23 24 25 25 26 26 27 27 28 29 29 29 30 30 31 31 32 33 34 35 36 37 38 38
16 16 16 16 17 17 18 18 18 19 19 19 20 20 21 21 22 23 24 24 25 26 26 27 27 28 28 29 29 30 30 31 32 32 33 34 35 36 36 37 38 39 39
Wind_Direction
308 290 285 293 296 292 285 292 290 283 272 267 262 258 249 246 243 248 249 251 252 250 250 249 251 254 255 258 259 257 255 257 258 258 258 260 261 262 263 262 260 260 260
310 299 278 271 284 292 296 297 286 281 272 261 260 259 249 241 244 249 250 252 254 254 255 257 258 261 261 259 260 258 258 260 262 260 259 260 261 263 263 264 263 261 260
321 314 288 281 285 291 301 303 296 288 276 268 263 258 249 238 240 246 246 249 254 256 255 259 259 261 262 261 260 260 259 262 263 263 263 261 262 263 262 262 264 265 262
328 317 312 294 285 294 304 309 306 296 288 281 268 254 246 239 244 243 247 252 255 256 258 259 259 258 260 259 260 263 263 263 264 263 262 262 263 264 262 262 262 263 261
324 308 325 320 307 323 327 334 333 319 309 300 276 263 254 257 260 246 246 250 257 258 260 262 263 262 262 262 263 265 265 266 267 265 264 264 265 265 263 262 262 262 260
327 326 315 325 310 331 340 345 339 330 328 318 288 285 279 270 263 255 245 246 250 257 263 266 264 264 267 269 269 271 270 266 266 263 264 266 269 268 265 264 264 263 263
318 328 320 309 321 340 345 345 339 333 325 306 293 293 287 273 258 264 260 254 252 258 265 267 266 272 269 272 274 274 275 270 268 269 269 268 268 268 267 269 266 265 266
313 322 314 318 325 340 339 343 348 339 326 320 313 311 301 294 283 277 267 268 270 273 275 277 279 279 279 281 281 275 274 272 272 272 272 270 273 271 269 266 267 267 266
272 297 317 319 304 310 314 330 341 345 337 326 308 300 308 303 299 289 282 280 285 289 287 284 286 284 284 284 282 280 278 276 276 276 275 278 280 277 274 268 266 267 267
265 281 312 308 291 291 299 312 326 329 330 328 323 312 305 306 297 288 284 287 294 297 295 293 290 286 286 284 286 287 286 283 279 282 279 282 283 280 278 273 269 269 269
253 264 280 292 287 283 291 300 308 312 316 320 320 319 318 316 310 304 294 293 295 296 297 297 297 296 294 290 289 289 289 290 285 282 286 286 284 282 279 276 272 271 269
253 261 270 278 280 281 287 292 302 309 312 314 316 316 315 316 314 307 300 299 299 299 299 300 300 300 298 295 294 291 292 293 292 290 288 288 285 283 281 278 275 274 273
255 269 274 277 284 282 281 287 292 301 308 309 310 309 309 309 309 305 301 299 298 299 299 299 302 300 298 296 295 294 293 293 292 293 290 287 286 285 284 282 280 279 279
261 277 282 275 281 284 285 291 296 300 304 307 310 310 309 309 308 305 302 299 298 299 301 301 302 301 299 298 297 296 295 293 292 290 290 286 285 284 285 285 284 282 281
261 287 296 284 282 290 298 301 304 302 306 310 310 311 315 314 312 309 308 305 302 300 302 302 303 302 301 300 300 299 297 296 293 291 290 289 289 286 284 284 285 286 285
267 283 288 287 291 297 301 304 310 312 309 310 311 310 309 312 312 308 307 305 303 302 302 302 303 304 302 300 300 298 297 297 296 294 293 292 292 291 289 287 286 285 286
278 287 284 281 287 292 296 301 305 304 304 305 306 304 304 304 307 305 305 303 303 301 301 301 302 302 300 299 299 299 298 298 297 296 295 294 294 292 292 291 290 288 288
283 284 288 288 288 291 293 296 297 297 299 301 300 298 298 301 304 304 304 304 303 304 302 301 301 301 300 300 298 298 301 301 300 298 296 295 294 293 293 292 292 291 293
285 285 284 285 289 292 294 298 296 295 295 298 298 297 298 301 302 302 301 301 302 303 303 303 301 302 301 302 302 300 301 302 302 301 299 297 295 294 293 293 292 292 293
282 283 283 283 287 290 293 296 297 297 296 296 297 298 300 301 301 301 301 301 301 302 303 303 303 303 303 303 303 302 302 303 302 302 301 298 296 295 294 293 293 294 294
279 279 281 282 284 286 290 293 295 295 295 295 296 298 299 301 302 302 302 302 303 303 303 303 304 304 303 303 304 303 302 302 302 302 302 300 299 297 295 294 294 295 295
279 277 279 282 283 286 290 292 294 296 296 295 296 298 297 299 302 302 303 304 304 303 303 303 304 304 303 303 303 302 302 303 302 302 301 301 300 300 299 297 296 296 296
278 278 280 281 282 284 287 289 293 294 294 294 296 297 298 301 302 304 304 304 304 304 305 304 304 303 302 302 303 303 303 302 301 300 299 300 300 300 300 299 299 298 297
278 280 280 279 280 284 288 291 293 293 292 293 294 295 297 298 300 301 302 302 303 303 303 303 303 302 302 302 302 302 302 302 301 300 300 300 300 301 300 300 299 299 298
279 278 279 279 281 285 289 292 293 292 292 292 293 295 296 296 298 299 301 302 303 302 302 302 301 302 302 303 303 302 302 301 302 302 301 301 302 303 302 301 300 299 298
278 277 277 279 281 285 288 289 291 293 295 295 294 296 297 298 299 300 302 303 303 302 302 302 302 302 303 303 303 302 302 303 303 304 303 303 303 303 303 302 302 301 301
Height
5862 5862 5861 5861 5861 5861 5861 5861 5860 5860 5860 5859 5860 5860 5861 5861 5862 5863 5863 5864 5865 5865 5866 5867 5867 5868 5868 5869 5869 5870 5870 5871 5872 5872 5872 5873 5873 5873 5874 5874 5875 5875 5875
5862 5861 5860 5860 5860 5860 5860 5860 5859 5859 5859 5858 5858 5859 5859 5860 5861 5861 5862 5863 5863 5863 5864 5865 5865 5866 5866 5866 5867 5867 5867 5868 5869 5869 5869 5870 5870 5871 5871 5871 5871 5872 5872
5861 5861 5860 5860 5860 5859 5859 5859 5858 5858 5858 5858 5858 5858 5858 5858 5859 5860 5860 5861 5861 5862 5862 5863 5863 5863 5864 5864 5864 5864 5864 5865 5865 5866 5866 5867 5867 5867 5867 5868 5868 5868 5868
5861 5861 5860 5860 5859 5859 5859 5858 5858 5857 5857 5857 5857 5857 5857 5857 5858 5858 5859 5859 5860 5860 5860 5861 5861 5861 5861 5861 5862 5862 5862 5862 5862 5863 5863 5863 5863 5864 5864 5864 5864 5864 5864
5861 5861 5860 5860 5859 5859 5858 5858 5858 5857 5857 5856 5856 5856 5856 5856 5856 5857 5857 5857 5858 5858 5858 5859 5859 5859 5859 5859 5859 5859 5859 5859 5859 5860 5860 5860 5860 5860 5859 5859 5860 5860 5861
5861 5860 5860 5859 5859 5859 5858 5858 5857 5857 5856 5856 5856 5856 5856 5855 5855 5855 5856 5856 5856 5857 5857 5857 5857 5857 5857 5857 5857 5857 5857 5856 5857 5857 5857 5857 5856 5856 5855 5856 5856 5856 5857
5860 5860 5860 5859 5859 5859 5858 5858 5857 5857 5856 5856 5856 5855 5855 5855 5854 5854 5854 5854 5855 5855 5855 5855 5855 5855 5855 5855 5855 5855 5854 5854 5854 5854 5854 5853 5853 5852 5852 5851 5851 5852 5853
5860 5860 5860 5859 5859 5859 5858 5858 5858 5857 5856 5856 5855 5855 5855 5855 5854 5854 5854 5854 5853 5853 5854 5854 5854 5854 5853 5853 5853 5853 5852 5852 5852 5851 5851 5850 5849 5848 5847 5847 5847 5848 5849
5860 5860 5859 5859 5859 5859 5858 5858 5857 5857 5856 5855 5855 5855 5854 5854 5854 5854 5853 5853 5852 5852 5852 5852 5852 5852 5852 5851 5851 5851 5850 5850 5849 5848 5848 5847 5846 5844 5842 5841 5842 5844 5845
5859 5859 5859 5859 5858 5858 5858 5858 5857 5857 5856 5855 5854 5854 5854 5854 5853 5853 5853 5852 5852 5851 5851 5851 5850 5850 5850 5849 5849 5848 5848 5847 5846 5846 5845 5844 5842 5841 5839 5839 5839 5840 5840
5858 5858 5858 5858 5858 5858 5858 5857 5857 5856 5856 5855 5854 5854 5853 5853 5853 5852 5852 5851 5851 5850 5850 5849 5849 5848 5848 5847 5846 5846 5845 5844 5843 5842 5842 5840 5839 5838 5836 5836 5836 5836 5836
5857 5857 5857 5857 5857 5857 5857 5856 5856 5856 5855 5854 5854 5853 5853 5852 5852 5851 5850 5850 5849 5849 5848 5847 5847 5846 5845 5845 5844 5843 5842 5841 5840 5839 5838 5837 5835 5835 5834 5833 5832 5832 5831
5856 5856 5856 5856 5856 5856 5856 5855 5855 5855 5854 5854 5853 5852 5852 5851 5850 5850 5849 5848 5848 5847 5846 5845 5844 5843 5843 5842 5841 5840 5839 5838 5837 5836 5834 5833 5832 5831 5830 5829 5828 5827 5827
5855 5855 5855 5855 5855 5855 5855 5854 5854 5854 5853 5853 5852 5851 5851 5850 5849 5848 5848 5847 5846 5845 5844 5843 5842 5841 5839 5838 5837 5836 5835 5834 5833 5832 5831 5830 5828 5827 5826 5825 5824 5823 5822
5854 5854 5854 5854 5854 5854 5854 5853 5853 5853 5852 5852 5851 5850 5849 5848 5848 5847 5846 5845 5844 5843 5842 5841 5839 5838 5837 5835 5834 5833 5831 5830 5829 5828 5827 5825 5824 5823 5821 5820 5818 5817 5816
5853 5853 5853 5853 5853 5853 5853 5852 5852 5852 5851 5850 5850 5849 5848 5847 5846 5845 5844 5843 5842 5841 5839 5838 5836 5835 5834 5832 5831 5829 5827 5826 5824 5823 5822 5820 5819 5817 5816 5814 5813 5811 5809
5853 5853 5852 5852 5852 5852 5852 5851 5851 5850 5850 5849 5848 5847 5847 5845 5844 5843 5842 5840 5839 5838 5836 5835 5833 5832 5831 5829 5827 5825 5823 5822 5820 5818 5816 5815 5813 5812 5810 5808 5806 5804 5803
5851 5851 5851 5851 5851 5851 5850 5850 5849 5848 5848 5847 5846 5845 5844 5843 5842 5841 5839 5838 5836 5835 5833 5832 5830 5828 5827 5825 5823 5821 5819 5817 5815 5813 5811 5809 5807 5805 5803 5801 5799 5797 5795
5850 5850 5850 5849 5849 5849 5848 5848 5847 5846 5846 5845 5844 5843 5842 5840 5839 5838 5836 5835 5833 5831 5830 5828 5826 5824 5822 5820 5818 5816 5814 5812 5809 5807 5805 5802 5800 5798 5796 5794 5792 5790 5788
5848 5848 5848 5847 5847 5847 5846 5845 5845 5844 5843 5842 5841 5840 5839 5837 5836 5834 5833 5831 5829 5827 5826 5824 5822 5819 5817 5815 5813 5811 5808 5806 5803 5801 5798 5796 5793 5791 5789 5787 5785 5782 5780
5846 5845 5845 5845 5844 5844 5843 5843 5842 5841 5840 5839 5838 5836 5835 5834 5832 5831 5829 5827 5825 5823 5821 5819 5817 5815 5812 5810 5808 5805 5803 5800 5797 5795 5792 5789 5786 5784 5781 5779 5776 5774 5771
5843 5842 5842 5842 5841 5841 5840 5839 5838 5837 5836 5835 5834 5832 5831 5830 5828 5827 5825 5823 5821 5818 5816 5814 5812 5810 5807 5805 5802 5799 5797 5794 5791 5789 5785 5782 5779 5776 5773 5771 5768 5765 5762
5839 5839 5839 5838 5838 5837 5837 5836 5835 5834 5832 5831 5830 5828 5827 5825 5824 5822 5820 5818 5815 5813 5811 5809 5806 5804 5801 5799 5796 5793 5790 5787 5784 5781 5778 5775 5772 5768 5765 5762 5759 5755 5752
5836 5835 5835 5835 5834 5833 5833 5832 5831 5829 5828 5827 5825 5824 5822 5821 5819 5817 5815 5813 5810 5808 5805 5803 5800 5797 5795 5792 5789 5786 5783 5780 5777 5774 5770 5768 5764 5760 5757 5753 5749 5746 5742
5832 5831 5831 5830 5830 5829 5828 5827 5826 5825 5823 5822 5820 5819 5817 5815 5813 5811 5809 5807 5805 5802 5799 5796 5793 5790 5788 5785 5781 5779 5776 5773 5769 5766 5762 5759 5755 5752 5748 5743 5739 5736 5732
5827 5827 5826 5826 5825 5825 5824 5823 5821 5820 5818 5817 5815 5813 5811 5810 5808 5805 5803 5801 5798 5796 5793 5790 5787 5784 5781 5777 5774 5771 5768 5765 5761 5758 5754 5750 5746 5742 5739 5734 5729 5725 5720